Location: Dennis Manor
(64.8292°N, 147.5397°W)
Time: 09:24:01
(UTC+00:00)

Envisat - Pass Details

Date: 02 November 2020
Orbit: 764 x 766 km, 98.1° (Epoch: 05 December)

Event Time Altitude Azimuth Distance (km) Brightness Sun altitude
Rises 14:51:55 0° 18° (NNE) 3,250 6.5 -18.0°
Reaches altitude 10° 14:54:37 10° 31° (NNE) 2,319 5.9 -17.7°
Maximum altitude 14:58:53 26° 88° (E) 1,481 5.3 -17.3°
Drops below altitude 10° 15:03:07 10° 145° (SE) 2,306 5.9 -16.8°
Sets 15:05:47 0° 158° (SSE) 3,228 6.5 -16.5°
